QPF
0.02 0.07 0.03 0.03 0.02 0.00 0.00 0.00 0.00 0.00 0.00 0.00 0.00 0.00 0.00 0.00 0.00 0.00 0.00 0.00 0.00 0.00 0.00 0.00 0.00 0.00 0.00 0.00 0.00 0.00 0.00 0.00 0.00 0.00 0.00 0.00 0.00 0.00 0.00 0.00 0.00 0.00 0.00
0.03 0.03 0.01 0.00 0.00 0.00 0.00 0.00 0.00 0.00 0.00 0.00 0.00 0.00 0.00 0.00 0.00 0.00 0.00 0.00 0.00 0.00 0.00 0.00 0.00 0.00 0.00 0.00 0.00 0.00 0.00 0.00 0.00 0.00 0.00 0.00 0.00 0.00 0.00 0.00 0.00 0.00 0.00
0.04 0.03 0.00 0.00 0.00 0.00 0.00 0.00 0.00 0.00 0.00 0.00 0.00 0.00 0.00 0.00 0.00 0.00 0.00 0.00 0.00 0.00 0.00 0.00 0.00 0.00 0.00 0.00 0.00 0.00 0.00 0.00 0.00 0.00 0.00 0.00 0.00 0.00 0.00 0.00 0.00 0.00 0.00
0.12 0.05 0.00 0.00 0.00 0.00 0.00 0.00 0.00 0.00 0.00 0.00 0.00 0.00 0.00 0.00 0.00 0.00 0.00 0.00 0.00 0.00 0.00 0.00 0.00 0.00 0.00 0.00 0.00 0.00 0.00 0.00 0.00 0.00 0.00 0.00 0.00 0.00 0.00 0.00 0.00 0.00 0.00
0.04 0.00 0.00 0.00 0.00 0.00 0.00 0.00 0.00 0.00 0.00 0.00 0.00 0.00 0.00 0.00 0.00 0.00 0.00 0.00 0.00 0.00 0.00 0.00 0.00 0.00 0.00 0.00 0.00 0.00 0.00 0.00 0.00 0.00 0.00 0.00 0.00 0.00 0.00 0.00 0.00 0.00 0.00
0.03 0.00 0.00 0.00 0.00 0.00 0.00 0.00 0.00 0.00 0.00 0.00 0.00 0.00 0.00 0.00 0.00 0.00 0.00 0.00 0.00 0.00 0.00 0.00 0.00 0.00 0.00 0.00 0.00 0.00 0.00 0.00 0.00 0.00 0.00 0.00 0.00 0.00 0.00 0.00 0.00 0.00 0.00
0.01 0.00 0.00 0.00 0.00 0.00 0.00 0.00 0.00 0.00 0.00 0.00 0.00 0.00 0.00 0.00 0.00 0.00 0.00 0.00 0.00 0.00 0.00 0.00 0.00 0.00 0.00 0.00 0.00 0.00 0.00 0.00 0.00 0.00 0.00 0.00 0.00 0.00 0.00 0.00 0.00 0.00 0.00
0.00 0.00 0.00 0.00 0.00 0.00 0.00 0.00 0.00 0.00 0.00 0.00 0.00 0.00 0.00 0.00 0.00 0.00 0.00 0.00 0.00 0.00 0.00 0.00 0.00 0.00 0.00 0.00 0.00 0.00 0.00 0.00 0.00 0.00 0.00 0.00 0.00 0.00 0.00 0.00 0.00 0.00 0.00
0.00 0.00 0.00 0.00 0.00 0.00 0.00 0.00 0.00 0.00 0.00 0.00 0.00 0.00 0.00 0.00 0.00 0.00 0.00 0.00 0.00 0.00 0.00 0.00 0.00 0.00 0.00 0.00 0.00 0.00 0.00 0.00 0.00 0.00 0.00 0.00 0.00 0.00 0.00 0.00 0.00 0.00 0.00
0.00 0.00 0.00 0.00 0.00 0.00 0.00 0.00 0.00 0.00 0.00 0.00 0.00 0.00 0.00 0.00 0.00 0.00 0.00 0.00 0.00 0.00 0.00 0.00 0.00 0.00 0.00 0.00 0.00 0.00 0.00 0.00 0.00 0.00 0.00 0.00 0.00 0.00 0.00 0.00 0.00 0.00 0.00
0.00 0.00 0.00 0.00 0.00 0.00 0.00 0.00 0.00 0.00 0.00 0.00 0.00 0.00 0.00 0.00 0.00 0.00 0.00 0.00 0.00 0.00 0.00 0.00 0.00 0.00 0.00 0.00 0.00 0.00 0.00 0.00 0.00 0.00 0.00 0.00 0.00 0.00 0.00 0.00 0.00 0.00 0.01
0.00 0.00 0.00 0.00 0.00 0.00 0.00 0.00 0.00 0.00 0.00 0.00 0.00 0.00 0.00 0.00 0.00 0.00 0.00 0.00 0.00 0.00 0.00 0.00 0.00 0.00 0.00 0.00 0.00 0.00 0.00 0.00 0.00 0.00 0.00 0.00 0.00 0.00 0.00 0.00 0.00 0.00 0.01
0.00 0.00 0.00 0.00 0.00 0.00 0.00 0.00 0.00 0.00 0.00 0.00 0.00 0.00 0.00 0.00 0.00 0.00 0.00 0.00 0.00 0.00 0.00 0.00 0.00 0.00 0.00 0.00 0.00 0.00 0.00 0.00 0.00 0.00 0.00 0.00 0.00 0.00 0.00 0.00 0.00 0.00 0.00
0.00 0.00 0.00 0.00 0.00 0.00 0.00 0.00 0.00 0.00 0.00 0.00 0.00 0.00 0.00 0.00 0.00 0.00 0.00 0.00 0.00 0.00 0.00 0.00 0.00 0.00 0.00 0.00 0.00 0.00 0.00 0.00 0.00 0.00 0.00 0.00 0.00 0.00 0.00 0.00 0.00 0.00 0.00
0.00 0.00 0.00 0.00 0.00 0.00 0.00 0.00 0.00 0.00 0.00 0.00 0.00 0.00 0.00 0.00 0.00 0.00 0.00 0.00 0.00 0.00 0.00 0.00 0.00 0.00 0.00 0.00 0.00 0.00 0.00 0.00 0.00 0.00 0.00 0.00 0.00 0.00 0.00 0.00 0.00 0.00 0.00
0.00 0.00 0.00 0.00 0.00 0.00 0.00 0.00 0.00 0.00 0.00 0.00 0.00 0.00 0.00 0.00 0.00 0.00 0.00 0.00 0.00 0.00 0.00 0.00 0.00 0.00 0.00 0.00 0.00 0.00 0.00 0.00 0.00 0.00 0.00 0.00 0.00 0.00 0.00 0.00 0.00 0.00 0.00
0.00 0.00 0.00 0.00 0.00 0.00 0.00 0.00 0.00 0.00 0.00 0.00 0.00 0.00 0.00 0.00 0.00 0.00 0.00 0.00 0.00 0.00 0.00 0.00 0.00 0.00 0.00 0.00 0.00 0.00 0.00 0.00 0.00 0.00 0.00 0.00 0.00 0.00 0.00 0.00 0.00 0.00 0.00
0.00 0.00 0.00 0.00 0.00 0.00 0.00 0.00 0.00 0.00 0.00 0.00 0.00 0.00 0.00 0.00 0.00 0.00 0.00 0.00 0.00 0.00 0.00 0.00 0.00 0.00 0.00 0.00 0.00 0.00 0.00 0.00 0.00 0.00 0.00 0.00 0.00 0.00 0.00 0.00 0.00 0.00 0.00
0.00 0.00 0.00 0.00 0.00 0.00 0.00 0.00 0.00 0.00 0.00 0.00 0.00 0.00 0.00 0.00 0.00 0.00 0.00 0.00 0.00 0.00 0.00 0.00 0.00 0.00 0.00 0.00 0.00 0.00 0.00 0.00 0.00 0.00 0.00 0.00 0.00 0.00 0.00 0.00 0.00 0.00 0.00
0.00 0.00 0.00 0.00 0.00 0.00 0.00 0.00 0.00 0.00 0.00 0.00 0.00 0.00 0.00 0.00 0.00 0.00 0.00 0.00 0.00 0.00 0.00 0.00 0.00 0.00 0.00 0.00 0.00 0.00 0.00 0.00 0.00 0.00 0.00 0.00 0.00 0.00 0.00 0.00 0.00 0.00 0.00
0.00 0.00 0.00 0.00 0.00 0.00 0.00 0.00 0.00 0.00 0.00 0.00 0.00 0.00 0.00 0.00 0.00 0.00 0.00 0.00 0.00 0.00 0.00 0.00 0.00 0.00 0.00 0.00 0.00 0.00 0.00 0.00 0.00 0.00 0.00 0.00 0.00 0.00 0.00 0.00 0.00 0.00 0.00
0.00 0.00 0.00 0.00 0.00 0.00 0.00 0.00 0.00 0.00 0.00 0.00 0.00 0.00 0.00 0.00 0.00 0.00 0.00 0.00 0.00 0.00 0.00 0.00 0.00 0.00 0.00 0.00 0.00 0.00 0.00 0.00 0.00 0.00 0.00 0.00 0.00 0.00 0.00 0.00 0.00 0.00 0.00
0.00 0.00 0.00 0.00 0.00 0.00 0.00 0.00 0.00 0.00 0.00 0.00 0.00 0.00 0.00 0.00 0.00 0.00 0.00 0.00 0.00 0.00 0.00 0.00 0.00 0.00 0.00 0.00 0.00 0.00 0.00 0.00 0.00 0.00 0.00 0.00 0.00 0.00 0.00 0.00 0.00 0.00 0.00
0.00 0.00 0.00 0.00 0.00 0.00 0.00 0.00 0.00 0.00 0.00 0.00 0.00 0.00 0.00 0.00 0.00 0.00 0.00 0.00 0.00 0.00 0.00 0.00 0.00 0.00 0.00 0.00 0.00 0.00 0.00 0.00 0.00 0.00 0.00 0.00 0.00 0.00 0.00 0.00 0.00 0.00 0.00
0.00 0.00 0.00 0.00 0.00 0.00 0.00 0.00 0.00 0.00 0.00 0.00 0.00 0.00 0.00 0.00 0.00 0.00 0.00 0.00 0.00 0.00 0.00 0.00 0.00 0.00 0.00 0.00 0.00 0.00 0.00 0.00 0.00 0.00 0.00 0.00 0.00 0.00 0.00 0.00 0.00 0.00 0.00
0.00 0.00 0.00 0.00 0.00 0.00 0.00 0.00 0.00 0.00 0.00 0.00 0.00 0.00 0.00 0.00 0.00 0.00 0.00 0.00 0.00 0.00 0.00 0.00 0.00 0.00 0.00 0.00 0.00 0.00 0.00 0.00 0.00 0.00 0.00 0.00 0.00 0.00 0.00 0.00 0.00 0.00 0.00
MSLP
1003.17 1004.70 1005.78 1006.91 1008.05 1009.74 1010.74 1011.10 1011.65 1012.05 1013.08 1013.67 1014.50 1014.60 1015.31 1015.79 1016.03 1016.34 1016.30 1016.45 1016.55 1016.68 1016.77 1016.74 1016.86 1016.98 1016.83 1016.51 1016.16 1015.58 1015.23 1014.76 1014.33 1013.34 1012.87 1012.30 1011.88 1011.60 1010.98 1010.35 1009.73 1008.83 1008.04
1003.62 1004.76 1005.83 1006.82 1007.25 1011.06 1011.68 1011.46 1011.93 1012.39 1013.31 1014.02 1014.72 1015.04 1015.79 1016.12 1016.45 1016.54 1016.63 1016.86 1017.05 1017.10 1017.08 1017.25 1017.34 1017.35 1017.33 1017.10 1016.73 1016.25 1015.69 1015.23 1014.78 1013.93 1013.26 1012.54 1012.34 1011.96 1011.38 1010.65 1009.79 1008.91 1008.11
1003.97 1005.38 1006.81 1005.98 1009.93 1011.75 1011.52 1011.89 1012.21 1012.72 1013.60 1014.56 1014.98 1015.54 1015.94 1016.47 1016.74 1016.89 1016.99 1017.06 1017.21 1017.42 1017.51 1017.49 1017.66 1017.72 1017.85 1017.73 1017.34 1016.77 1016.12 1015.60 1014.96 1014.41 1013.51 1012.88 1012.40 1011.91 1011.23 1010.37 1009.81 1008.77 1007.70
1004.48 1005.99 1006.79 1009.60 1010.94 1011.85 1011.68 1011.86 1012.62 1013.33 1014.25 1014.96 1015.65 1016.23 1017.01 1017.51 1017.72 1017.53 1017.49 1017.54 1017.73 1017.72 1017.63 1017.65 1017.85 1018.36 1018.57 1018.30 1017.78 1017.20 1016.49 1015.85 1015.03 1014.58 1014.03 1013.29 1012.74 1012.13 1011.75 1010.87 1009.22 1008.55 1007.17
1005.25 1006.67 1008.51 1010.98 1011.41 1011.19 1011.42 1012.59 1013.29 1013.95 1014.93 1015.77 1016.57 1017.47 1018.12 1018.58 1019.05 1018.97 1018.28 1017.91 1017.98 1018.03 1018.20 1018.28 1018.62 1018.93 1018.90 1018.91 1018.46 1017.61 1016.90 1016.10 1015.49 1014.98 1014.48 1013.79 1012.98 1012.24 1011.76 1011.12 1010.17 1008.87 1007.47
1005.99 1008.26 1010.36 1010.89 1010.55 1011.11 1012.38 1013.17 1013.86 1014.81 1015.65 1016.52 1017.53 1018.29 1019.00 1019.62 1019.74 1019.39 1019.16 1018.72 1018.44 1018.51 1018.76 1019.06 1018.96 1019.07 1019.26 1018.97 1018.33 1017.30 1016.68 1016.24 1015.85 1015.47 1015.31 1014.62 1013.83 1013.09 1012.25 1011.57 1010.52 1009.31 1007.71
1007.62 1009.74 1009.95 1010.11 1010.60 1012.03 1012.94 1013.79 1014.80 1015.83 1016.79 1017.59 1018.41 1019.40 1020.19 1020.41 1020.16 1019.80 1019.48 1019.13 1018.72 1018.86 1019.12 1019.51 1019.52 1019.75 1019.78 1019.33 1018.47 1017.52 1017.05 1016.55 1016.22 1016.05 1015.64 1015.35 1014.81 1013.99 1013.05 1011.77 1010.77 1009.88 1008.66
1008.30 1008.89 1009.58 1010.24 1011.38 1012.64 1013.80 1014.81 1015.78 1016.63 1017.44 1018.25 1019.17 1020.02 1020.66 1021.08 1020.82 1020.39 1019.64 1019.25 1019.16 1019.28 1019.89 1020.25 1020.36 1020.31 1020.16 1019.87 1019.05 1018.08 1017.35 1016.73 1016.26 1016.19 1015.86 1015.63 1015.16 1014.27 1013.41 1012.44 1011.24 1009.90 1008.53
1007.82 1009.06 1009.89 1010.95 1012.42 1013.68 1014.63 1015.70 1016.63 1017.42 1018.27 1019.08 1019.74 1020.58 1021.33 1021.87 1021.58 1020.86 1020.10 1019.93 1020.04 1020.23 1020.55 1020.64 1020.74 1020.71 1020.45 1020.01 1019.57 1018.51 1017.94 1017.20 1016.32 1015.69 1015.60 1015.37 1014.89 1014.07 1013.17 1012.13 1010.91 1009.67 1008.34
1008.76 1009.63 1010.97 1012.32 1013.43 1014.38 1015.34 1016.35 1017.38 1018.23 1019.16 1020.01 1020.71 1021.18 1021.75 1022.10 1022.14 1021.65 1021.37 1021.34 1021.00 1020.50 1020.45 1020.92 1021.03 1020.86 1020.49 1020.04 1019.92 1019.03 1018.19 1017.46 1016.65 1015.73 1015.29 1014.90 1014.54 1013.95 1012.99 1012.44 1011.56 1010.35 1009.22
1010.21 1011.14 1012.33 1013.41 1014.32 1015.25 1016.24 1017.19 1018.17 1019.03 1019.76 1020.34 1020.87 1021.57 1021.93 1022.18 1022.64 1022.68 1022.56 1022.22 1021.96 1021.27 1021.26 1021.45 1021.27 1020.94 1020.55 1020.28 1019.96 1019.35 1018.85 1017.83 1016.91 1016.22 1015.63 1015.04 1014.57 1014.02 1013.08 1012.39 1011.77 1010.96 1009.92
1011.53 1012.59 1013.63 1014.59 1015.50 1016.49 1017.28 1018.14 1018.86 1019.42 1019.94 1020.45 1020.95 1021.44 1022.15 1022.67 1023.12 1023.08 1023.00 1022.83 1022.59 1022.18 1022.06 1021.74 1021.68 1021.48 1021.07 1020.71 1020.30 1019.69 1019.03 1018.13 1017.24 1016.59 1015.90 1015.40 1014.79 1014.19 1013.49 1012.82 1011.96 1011.13 1010.35
1012.76 1013.73 1014.89 1015.81 1016.69 1017.51 1018.16 1018.85 1019.26 1019.56 1020.10 1020.64 1021.38 1022.21 1023.18 1023.77 1023.89 1023.68 1023.46 1023.08 1022.53 1022.36 1022.25 1022.00 1021.72 1021.57 1021.37 1021.17 1020.85 1020.26 1019.54 1018.85 1017.93 1017.18 1016.37 1015.88 1015.22 1014.53 1013.81 1012.91 1011.98 1011.21 1010.36
1013.88 1015.18 1016.33 1017.45 1018.48 1019.41 1020.27 1020.94 1021.23 1021.28 1021.63 1022.08 1022.59 1023.26 1024.14 1024.77 1025.02 1024.81 1024.29 1023.65 1023.29 1022.66 1022.42 1022.02 1021.85 1021.68 1021.57 1021.49 1021.09 1020.76 1020.26 1019.69 1018.75 1018.14 1017.20 1016.31 1015.47 1014.51 1013.92 1013.30 1012.51 1011.55 1010.68
1015.55 1016.82 1017.94 1019.04 1020.29 1021.54 1022.53 1023.03 1023.56 1024.09 1023.86 1024.12 1024.73 1025.01 1025.36 1025.90 1026.09 1025.79 1025.51 1024.93 1024.41 1023.72 1022.84 1022.60 1022.37 1022.09 1022.00 1021.90 1021.70 1021.45 1020.97 1020.34 1019.27 1018.60 1017.80 1016.74 1015.79 1014.88 1014.29 1013.80 1013.20 1012.39 1011.60
1016.56 1017.96 1019.17 1020.27 1021.54 1022.71 1023.57 1024.73 1025.52 1025.48 1025.57 1025.61 1025.73 1025.86 1026.38 1026.51 1026.28 1026.04 1025.54 1025.10 1024.65 1023.99 1023.40 1023.22 1022.99 1023.04 1023.09 1022.95 1022.58 1022.22 1021.69 1021.07 1020.25 1019.26 1018.33 1017.41 1016.44 1015.56 1014.92 1014.37 1013.88 1013.33 1012.53
1017.63 1018.96 1019.92 1020.76 1021.83 1022.80 1023.72 1024.58 1025.53 1026.66 1026.51 1026.42 1026.50 1026.65 1026.69 1026.68 1026.20 1025.78 1025.72 1025.38 1024.91 1024.20 1024.16 1024.04 1023.94 1024.05 1024.04 1023.91 1023.54 1023.19 1022.58 1022.01 1021.17 1020.03 1019.08 1018.02 1017.17 1016.19 1015.57 1015.15 1014.65 1014.14 1013.39
1018.34 1019.22 1019.84 1020.63 1021.51 1022.32 1023.05 1023.72 1024.50 1025.46 1026.26 1026.99 1027.15 1026.57 1026.93 1026.89 1026.86 1026.41 1025.92 1025.24 1025.23 1024.93 1024.99 1025.08 1025.06 1025.00 1024.83 1024.76 1024.43 1024.09 1023.57 1022.91 1021.98 1021.03 1019.89 1018.65 1017.92 1016.89 1016.19 1015.79 1015.52 1014.99 1014.38
1018.57 1019.26 1019.82 1020.41 1021.12 1021.77 1022.49 1023.12 1023.92 1024.75 1025.54 1026.24 1026.88 1027.40 1027.20 1027.19 1027.12 1027.01 1026.51 1026.08 1026.12 1025.96 1025.86 1025.90 1025.95 1025.89 1025.81 1025.68 1025.33 1025.09 1024.63 1023.92 1023.09 1022.07 1021.05 1019.70 1018.69 1017.81 1016.92 1016.45 1016.30 1015.83 1015.39
1019.40 1020.08 1020.68 1021.30 1021.87 1022.44 1023.05 1023.81 1024.58 1025.35 1025.98 1026.42 1026.90 1027.26 1027.00 1026.60 1027.02 1027.09 1026.98 1027.03 1026.99 1027.02 1026.91 1026.70 1026.78 1026.82 1026.74 1026.60 1026.26 1025.97 1025.53 1024.77 1024.06 1023.14 1022.02 1021.11 1019.56 1018.73 1017.69 1017.11 1016.90 1016.75 1016.37
1020.33 1020.84 1021.22 1021.68 1022.20 1022.86 1023.59 1024.25 1025.05 1025.74 1026.43 1026.95 1027.31 1027.50 1027.32 1027.14 1027.46 1027.52 1027.61 1027.69 1027.79 1027.79 1027.87 1027.60 1027.58 1027.72 1027.70 1027.52 1027.33 1026.91 1026.50 1025.91 1025.22 1024.30 1023.22 1022.01 1020.46 1019.63 1018.46 1017.78 1017.72 1017.69 1017.43
1020.69 1021.13 1021.74 1022.37 1023.02 1023.56 1024.08 1024.52 1025.13 1025.72 1026.28 1026.85 1027.48 1027.80 1027.75 1027.80 1027.91 1028.02 1028.19 1028.39 1028.39 1028.47 1028.46 1028.53 1028.37 1028.59 1028.76 1028.62 1028.36 1027.87 1027.45 1026.95 1026.22 1025.26 1024.14 1023.01 1021.27 1020.46 1019.29 1018.69 1018.70 1018.42 1018.06
1021.31 1021.91 1022.66 1023.27 1023.86 1024.29 1024.67 1025.16 1025.75 1026.25 1026.70 1027.07 1027.55 1028.04 1028.47 1028.62 1028.69 1028.73 1028.83 1028.79 1028.95 1029.04 1029.20 1029.23 1029.26 1029.41 1029.65 1029.55 1029.28 1028.79 1028.44 1028.04 1027.31 1026.10 1025.13 1023.74 1022.04 1021.20 1020.14 1019.73 1019.68 1019.37 1018.95
1022.46 1022.93 1023.28 1023.75 1024.42 1025.00 1025.60 1026.13 1026.45 1026.84 1027.24 1027.67 1028.12 1028.49 1028.77 1029.08 1029.27 1029.32 1029.37 1029.42 1029.36 1029.46 1029.54 1029.67 1030.03 1030.22 1030.45 1030.32 1029.97 1029.45 1029.04 1028.66 1027.76 1026.59 1025.49 1024.12 1022.84 1021.87 1021.00 1020.78 1020.58 1020.40 1020.01
1022.72 1023.44 1024.12 1024.62 1025.17 1025.56 1025.99 1026.56 1027.06 1027.48 1027.79 1028.17 1028.57 1028.94 1029.22 1029.52 1029.71 1029.91 1029.97 1029.82 1029.85 1029.85 1030.00 1030.03 1030.55 1030.91 1030.98 1031.04 1030.79 1030.17 1029.54 1028.64 1027.64 1026.90 1025.81 1024.07 1023.62 1022.62 1021.93 1021.80 1021.56 1021.28 1020.98
1023.66 1024.19 1024.64 1025.10 1025.64 1026.13 1026.71 1027.22 1027.67 1028.11 1028.48 1028.88 1029.27 1029.59 1029.75 1030.02 1030.19 1030.35 1030.46 1030.38 1030.25 1030.34 1030.47 1030.63 1030.92 1031.60 1031.59 1031.62 1031.47 1030.87 1030.11 1029.19 1028.24 1027.13 1025.95 1024.77 1024.11 1023.43 1022.80 1022.61 1022.51 1022.22 1021.90
Thickness
5749 5740 5739 5735 5729 5722 5714 5717 5717 5717 5709 5703 5694 5693 5683 5677 5673 5668 5666 5661 5656 5650 5644 5639 5633 5626 5622 5618 5615 5612 5607 5604 5598 5599 5591 5585 5578 5570 5563 5556 5550 5549 5546
5740 5739 5733 5734 5735 5700 5704 5711 5712 5709 5701 5696 5689 5684 5675 5671 5665 5661 5658 5651 5645 5640 5636 5629 5622 5616 5610 5606 5602 5598 5595 5590 5586 5584 5576 5571 5560 5554 5546 5543 5541 5538 5536
5731 5727 5720 5735 5704 5694 5704 5704 5706 5702 5695 5687 5682 5674 5669 5662 5658 5654 5649 5644 5638 5632 5625 5620 5612 5606 5598 5592 5589 5586 5583 5578 5573 5566 5562 5554 5547 5542 5540 5535 5532 5532 5530
5721 5713 5711 5697 5693 5692 5699 5701 5697 5692 5683 5677 5670 5664 5655 5649 5645 5644 5640 5635 5627 5622 5617 5611 5604 5594 5586 5581 5578 5575 5570 5565 5561 5552 5545 5541 5536 5532 5526 5525 5532 5530 5531
5693 5702 5695 5682 5689 5697 5698 5690 5686 5681 5672 5665 5658 5649 5642 5635 5627 5624 5627 5625 5619 5613 5606 5601 5592 5582 5576 5569 5564 5561 5556 5551 5544 5537 5531 5530 5529 5527 5521 5518 5518 5522 5524
5689 5685 5678 5685 5693 5691 5685 5680 5675 5668 5662 5654 5645 5638 5629 5621 5614 5614 5611 5612 5609 5604 5596 5589 5585 5575 5564 5557 5553 5551 5546 5538 5528 5522 5515 5515 5516 5514 5514 5510 5511 5514 5520
5680 5675 5684 5687 5687 5680 5675 5669 5661 5654 5646 5640 5632 5622 5613 5609 5606 5605 5603 5604 5604 5597 5589 5580 5572 5563 5552 5545 5540 5537 5528 5521 5514 5509 5506 5504 5502 5502 5503 5506 5507 5506 5508
5679 5682 5682 5683 5678 5670 5662 5655 5649 5643 5636 5629 5620 5612 5605 5599 5597 5596 5599 5600 5596 5589 5576 5567 5558 5550 5541 5531 5525 5520 5516 5512 5508 5503 5501 5497 5496 5498 5497 5497 5500 5503 5507
5682 5679 5677 5674 5664 5656 5651 5643 5637 5631 5624 5617 5611 5602 5594 5588 5588 5590 5593 5591 5584 5575 5563 5555 5546 5537 5529 5521 5513 5511 5504 5502 5503 5504 5499 5497 5497 5498 5500 5503 5506 5510 5514
5673 5672 5665 5657 5652 5647 5642 5634 5627 5620 5611 5604 5597 5593 5587 5583 5580 5581 5579 5573 5570 5567 5560 5546 5536 5529 5520 5511 5501 5500 5499 5498 5500 5503 5502 5500 5498 5498 5500 5500 5503 5507 5511
5662 5657 5652 5647 5642 5637 5631 5623 5615 5608 5602 5596 5592 5585 5581 5578 5571 5567 5563 5561 5556 5553 5544 5534 5528 5521 5511 5502 5495 5494 5490 5493 5498 5499 5499 5499 5498 5498 5501 5502 5503 5503 5506
5648 5644 5638 5634 5630 5624 5619 5612 5606 5601 5598 5594 5589 5583 5576 5569 5561 5558 5554 5550 5543 5537 5529 5526 5517 5508 5500 5494 5490 5487 5489 5491 5495 5496 5497 5496 5497 5498 5499 5500 5502 5503 5503
5637 5633 5627 5623 5618 5613 5609 5605 5602 5600 5597 5592 5585 5575 5563 5555 5550 5547 5543 5539 5534 5528 5521 5516 5508 5501 5494 5486 5481 5480 5482 5485 5489 5490 5493 5492 5493 5495 5498 5500 5502 5503 5504
5627 5621 5614 5604 5598 5593 5588 5584 5582 5585 5582 5577 5572 5564 5552 5543 5536 5532 5528 5525 5520 5517 5511 5506 5499 5493 5487 5481 5478 5475 5476 5478 5481 5482 5486 5489 5492 5497 5499 5500 5502 5503 5505
5610 5601 5595 5589 5581 5573 5566 5566 5562 5557 5560 5558 5550 5545 5539 5529 5523 5518 5513 5509 5505 5503 5501 5495 5489 5485 5479 5475 5471 5468 5469 5472 5477 5479 5481 5485 5491 5496 5498 5498 5498 5499 5501
5600 5591 5583 5577 5570 5561 5556 5549 5545 5545 5543 5542 5538 5533 5524 5518 5514 5509 5504 5500 5497 5494 5490 5485 5480 5474 5467 5462 5462 5460 5462 5465 5468 5474 5478 5480 5487 5492 5494 5495 5495 5495 5498
5588 5580 5576 5572 5564 5558 5552 5547 5542 5533 5533 5531 5527 5521 5516 5511 5506 5501 5495 5489 5486 5484 5478 5474 5469 5462 5456 5452 5451 5450 5453 5456 5460 5468 5472 5477 5481 5489 5491 5491 5492 5493 5496
5583 5578 5576 5571 5565 5560 5555 5551 5548 5540 5531 5523 5517 5513 5505 5499 5492 5488 5484 5479 5475 5472 5467 5461 5456 5451 5447 5442 5441 5441 5443 5448 5453 5459 5466 5474 5476 5483 5488 5489 5489 5489 5492
5580 5576 5574 5571 5567 5562 5557 5553 5547 5540 5532 5523 5512 5501 5495 5489 5482 5475 5470 5467 5462 5459 5456 5451 5446 5442 5437 5432 5432 5431 5433 5438 5443 5450 5456 5465 5472 5476 5483 5486 5485 5486 5487
5570 5565 5563 5561 5558 5554 5550 5543 5536 5527 5519 5512 5504 5493 5488 5483 5474 5465 5459 5454 5451 5447 5444 5441 5436 5432 5428 5424 5423 5422 5424 5429 5434 5441 5448 5453 5465 5470 5478 5481 5482 5481 5483
5561 5559 5557 5556 5553 5548 5542 5535 5526 5517 5507 5498 5490 5481 5473 5472 5462 5456 5450 5445 5440 5437 5433 5431 5427 5423 5419 5417 5414 5414 5416 5419 5424 5430 5438 5446 5458 5463 5472 5477 5476 5476 5477
5556 5555 5552 5548 5543 5538 5533 5529 5520 5511 5502 5491 5480 5471 5464 5459 5453 5447 5441 5435 5432 5428 5425 5421 5419 5415 5411 5408 5407 5407 5408 5411 5416 5422 5430 5437 5451 5456 5465 5470 5469 5471 5474
5550 5547 5542 5538 5533 5528 5525 5518 5509 5500 5491 5482 5473 5463 5454 5448 5442 5436 5432 5429 5425 5421 5417 5414 5411 5407 5403 5401 5401 5401 5402 5405 5409 5416 5422 5431 5445 5450 5458 5462 5462 5464 5467
5538 5536 5534 5531 5525 5519 5511 5503 5497 5488 5481 5473 5464 5455 5449 5442 5435 5429 5424 5420 5418 5415 5412 5409 5404 5399 5396 5395 5396 5398 5399 5402 5406 5413 5420 5429 5437 5444 5451 5453 5455 5457 5459
5535 5530 5525 5521 5515 5510 5503 5495 5487 5479 5472 5463 5456 5449 5443 5435 5429 5423 5418 5415 5412 5410 5407 5404 5398 5393 5391 5389 5390 5393 5398 5403 5408 5412 5419 5427 5430 5438 5443 5444 5446 5449 5452
5525 5521 5518 5513 5506 5500 5493 5485 5478 5469 5461 5454 5448 5441 5436 5428 5422 5416 5412 5409 5406 5403 5400 5397 5393 5387 5385 5384 5385 5388 5393 5398 5404 5410 5416 5421 5426 5432 5437 5438 5439 5441 5444